Ann Arbor, MI

3:21 AM EST on December 16, 2017 (GMT -0500)
Ann Arbor Municipal

Weather History for KARB - October, 2014

Change the Weather History Date:

Saturday, October 18, 2014

  Actual Average Record
Temperature  
Mean Temperature 48 °F -  
Max Temperature 48 °F 57 °F 75 °F (2007)
Min Temperature 42 °F 35 °F 21 °F (2015)
Degree Days  
Heating Degree Days 18    
Moisture  
Dew Point 38 °F    
Average Humidity 73    
Maximum Humidity 82    
Minimum Humidity 63    
Precipitation  
Precipitation 0.01 in - - ()
Sea Level Pressure  
Sea Level Pressure 29.87 in    
Wind  
Wind Speed 14 mph (NW)    
Max Wind Speed 20 mph    
Max Gust Speed 26 mph    
Visibility 10 miles    
Events Rain    
Averages and records for this station are not official NWS values.
T = Trace of Precipitation, MM = Missing Value Source: NWS Daily Summary

Daily Weather History Graph

Daily Weather History Graph

Search for Another Location

Airport or City:

Trip Planner

Search our weather history database for the weather conditions in past years. The results will help you decide how hot, cold, wet, or windy it might be!

Date:

Astronomy

Oct. 18, 2014 Rise Set
Actual Time 7:51 AM EDT 6:48 PM EDT
Civil Twilight 7:22 AM EDT 7:16 PM EDT
Nautical Twilight 6:50 AM EDT 7:49 PM EDT
Astronomical Twilight 6:17 AM EDT 8:21 PM EDT
Moon 2:43 AM EDT (10/18) 4:12 PM EDT (10/18)
Length of Visible Light 11h 53m
Length of Day
10h 57m
Waning Crescent, 24% of the Moon is Illuminated
Oct 18
Waning Crescent
Oct 23
New
Oct 30
First Quarter
Nov 6
Full
Nov 14
Last Quarter

Hourly Weather History & Observations

Time (EDT) Temp. Windchill Dew Point Humidity Pressure Visibility Wind Dir Wind Speed Gust Speed Precip Events Conditions
12:08 AM 51.1 °F - 44.1 °F 77% 29.66 in 10.0 mi WNW 17.3 mph 24.2 mph 0.00 in   Overcast
12:53 AM 48.9 °F - 42.1 °F 77% 29.67 in 10.0 mi NW 17.3 mph 23.0 mph 0.00 in Rain Light Rain
1:02 AM 48.9 °F - 42.1 °F 77% 29.68 in 10.0 mi NW 17.3 mph 23.0 mph 0.00 in Rain Light Rain
1:24 AM 48.0 °F - 42.1 °F 80% 29.69 in 10.0 mi NW 19.6 mph 26.5 mph 0.00 in Rain Light Rain
1:53 AM 48.0 °F - 39.9 °F 74% 29.70 in 10.0 mi NW 10.4 mph 24.2 mph 0.00 in Rain Light Rain
2:09 AM 48.0 °F - 39.9 °F 74% 29.70 in 10.0 mi WNW 12.7 mph - 0.00 in   Mostly Cloudy
2:17 AM 48.0 °F - 39.0 °F 71% 29.70 in 10.0 mi NW 12.7 mph - 0.00 in   Mostly Cloudy
2:53 AM 46.9 °F - 39.0 °F 74% 29.72 in 10.0 mi NW 16.1 mph 23.0 mph 0.00 in Rain Light Rain
3:53 AM 46.0 °F 39.3 °F 39.0 °F 76% 29.73 in 10.0 mi WNW 16.1 mph 23.0 mph 0.00 in   Overcast
4:17 AM 46.0 °F 40.6 °F 39.0 °F 76% 29.74 in 10.0 mi WNW 11.5 mph - N/A   Overcast
4:53 AM 46.0 °F 39.0 °F 39.0 °F 76% 29.75 in 10.0 mi NW 17.3 mph - N/A   Overcast
5:49 AM 44.6 °F 38.1 °F 37.4 °F 76% 29.76 in 10.0 mi WNW 13.8 mph - 0.00 in Rain Light Rain
5:53 AM 45.0 °F 40.6 °F 37.9 °F 76% 29.76 in 10.0 mi WNW 8.1 mph - 0.00 in Rain Light Rain
6:16 AM 45.0 °F 40.1 °F 39.0 °F 80% 29.77 in 10.0 mi NW 9.2 mph - 0.00 in Rain Light Rain
6:29 AM 45.0 °F 39.7 °F 37.9 °F 76% 29.78 in 10.0 mi NW 10.4 mph - 0.00 in Rain Light Rain
6:53 AM 45.0 °F 39.3 °F 37.9 °F 76% 29.79 in 10.0 mi NW 11.5 mph - 0.00 in Rain Light Rain
7:11 AM 45.0 °F 39.7 °F 37.9 °F 76% 29.79 in 10.0 mi NW 10.4 mph 18.4 mph 0.00 in Rain Light Rain
7:22 AM 45.0 °F 39.7 °F 37.9 °F 76% 29.80 in 10.0 mi NW 10.4 mph - 0.00 in Rain Light Rain
7:42 AM 45.0 °F 39.3 °F 37.9 °F 76% 29.81 in 10.0 mi NNW 11.5 mph - 0.00 in Rain Light Rain
7:53 AM 45.0 °F 38.9 °F 37.9 °F 76% 29.82 in 10.0 mi NW 12.7 mph - 0.00 in Rain Light Rain
8:53 AM 45.0 °F 38.9 °F 37.9 °F 76% 29.85 in 10.0 mi NNW 12.7 mph 20.7 mph 0.00 in Rain Light Rain
9:53 AM 45.0 °F 40.1 °F 39.0 °F 80% 29.88 in 8.0 mi NNW 9.2 mph - 0.00 in Rain Light Rain
10:01 AM 45.0 °F 38.9 °F 39.0 °F 80% 29.87 in 10.0 mi North 12.7 mph - 0.00 in Rain Light Rain
10:06 AM 44.1 °F 38.1 °F 39.0 °F 82% 29.87 in 6.0 mi North 11.5 mph 21.9 mph 0.00 in Rain Light Rain
10:21 AM 45.0 °F 38.9 °F 39.0 °F 80% 29.87 in 10.0 mi NNW 12.7 mph 20.7 mph 0.00 in Rain Light Rain
10:39 AM 46.0 °F 39.6 °F 37.9 °F 73% 29.88 in 10.0 mi NNW 15.0 mph 24.2 mph 0.01 in Rain Light Rain
10:53 AM 46.0 °F 39.6 °F 37.9 °F 73% 29.89 in 10.0 mi NNW 15.0 mph 25.3 mph 0.01 in Rain Light Rain
11:53 AM 48.0 °F - 36.0 °F 63% 29.92 in 10.0 mi North 13.8 mph 21.9 mph 0.00 in Rain Light Rain
12:31 PM 48.0 °F - 37.0 °F 66% 29.93 in 10.0 mi NNW 12.7 mph 23.0 mph 0.00 in Rain Light Rain
12:39 PM 46.9 °F - 37.0 °F 68% 29.93 in 10.0 mi North 16.1 mph 21.9 mph 0.00 in Rain Light Rain
12:53 PM 46.9 °F - 37.0 °F 68% 29.95 in 10.0 mi NNW 10.4 mph - 0.00 in Rain Light Rain
1:53 PM 48.0 °F - 37.0 °F 66% 29.96 in 10.0 mi NNW 16.1 mph - 0.00 in Rain Light Rain
2:53 PM 46.0 °F 40.6 °F 37.9 °F 73% 29.98 in 10.0 mi NNW 11.5 mph - 0.00 in Rain Light Rain
3:53 PM 48.0 °F - 37.9 °F 68% 29.99 in 10.0 mi NW 12.7 mph 21.9 mph 0.00 in Rain Light Rain
4:53 PM 46.9 °F - 37.9 °F 71% 30.01 in 10.0 mi NW 10.4 mph - 0.00 in Rain Light Rain
5:53 PM 46.9 °F - 37.0 °F 68% 30.03 in 10.0 mi NNW 13.8 mph - 0.00 in Rain Light Rain
6:53 PM 46.9 °F - 37.9 °F 71% 30.05 in 10.0 mi NNW 11.5 mph - 0.00 in Rain Light Rain
7:53 PM 46.9 °F - 37.9 °F 71% 30.08 in 10.0 mi NNW 8.1 mph - 0.00 in   Overcast
8:08 PM 46.9 °F - 37.0 °F 68% 30.07 in 10.0 mi NNW 15.0 mph 19.6 mph N/A   Overcast
8:53 PM 46.0 °F 42.5 °F 35.1 °F 66% 30.10 in 10.0 mi NNW 6.9 mph - 0.00 in   Overcast
9:53 PM 45.0 °F 43.5 °F 35.1 °F 68% 30.11 in 10.0 mi North 3.5 mph - N/A   Overcast
10:53 PM 44.1 °F 39.0 °F 35.1 °F 71% 30.12 in 10.0 mi NNW 9.2 mph - N/A   Overcast
11:53 PM 42.1 °F 38.4 °F 33.1 °F 70% 30.12 in 10.0 mi NNW 5.8 mph - N/A   Mostly Cloudy